Terminal Aerodrome Forecast
Issued by NWS Hastings, NE

Home | Current Version | Previous Version | Text Only | Print | Product List | Glossary On
Versions: 1 2 3 4 5 6 7 8 9 10 11 12 13 14 15 16 17 18 19 20 21 22 23 24 25 26 27 28 29 30 31 32 33 34 35 36 37 38 39 40 41 42 43 44 45
000
FTUS43 KGID 250239 AAA
TAFGRI
TAF AMD
KGRI 250239Z 2503/2524 21008KT P6SM SCT010 BKN035
     FM250400 18006KT P6SM BKN010
     FM251800 18010KT P6SM SCT010=

USA.gov is the U.S. government's official web portal to all federal, state and local government web resources and services.